Weather History for York, PA

Change the Weather History Date:

Saturday, October 29, 2011

  Actual Average Record
Temperature  
Mean Temperature 36 °F -  
Max Temperature 39 °F 0 °F 73 °F (1999)
Min Temperature 32 °F - 23 °F (2001)
Degree Days  
Heating Degree Days 30    
Moisture  
Dew Point 32 °F    
Average Humidity 90    
Maximum Humidity 100    
Minimum Humidity 79    
Precipitation  
Precipitation 1.14 in - - ()
Sea Level Pressure  
Sea Level Pressure 30.04 in    
Wind  
Wind Speed 6 mph (North)    
Max Wind Speed 10 mph    
Max Gust Speed 16 mph    
Visibility 4 miles    
Events Fog , Rain , Snow    
Averages and records for this station are not official NWS values.
T = Trace of Precipitation, MM = Missing Value Source: NWS Daily Summary

Daily Weather History Graph

Daily Weather History Graph

Search for Another Location

Airport:

Trip Planner

Search our weather history database for the weather conditions in past years. The results will help you decide how hot, cold, wet, or windy it might be!

Date:

Astronomy

Oct. 29, 2011 Rise Set
Actual Time 7:32 AM EDT 6:09 PM EDT
Civil Twilight 7:04 AM EDT 6:36 PM EDT
Nautical Twilight 6:33 AM EDT 7:08 PM EDT
Astronomical Twilight 6:01 AM EDT 7:40 PM EDT
Moon 10:52 AM EDT (10/29) 8:30 PM EDT (10/29)
Length of Visible Light 11h 32m
Length of Day
10h 36m
Waxing Crescent, 11% of the Moon is Illuminated
Oct 29
Waxing Crescent
Nov 2
First Quarter
Nov 10
Full
Nov 18
Last Quarter
Nov 25
New

Hourly Weather History & Observations

Time (EDT) Temp. Windchill Dew Point Humidity Pressure Visibility Wind Dir Wind Speed Gust Speed Precip Events Conditions
12:53 AM 39.0 °F 36.8 °F 35.1 °F 86% 30.20 in 10.0 mi ESE 3.5 mph - 0.01 in Rain Light Rain
1:53 AM 39.0 °F 34.0 °F 33.1 °F 79% 30.19 in 10.0 mi East 6.9 mph - 0.00 in Rain Light Rain
2:53 AM 39.0 °F 34.0 °F 34.0 °F 82% 30.18 in 10.0 mi East 6.9 mph - 0.01 in Rain Light Rain
3:53 AM 37.9 °F 33.5 °F 34.0 °F 86% 30.17 in 10.0 mi East 5.8 mph - 0.01 in Rain Light Rain
4:17 AM 37.4 °F 32.8 °F 35.6 °F 93% 30.12 in 9.0 mi ENE 5.8 mph - 0.02 in Rain Light Rain
4:53 AM 37.9 °F 34.4 °F 35.1 °F 89% 30.14 in 8.0 mi ENE 4.6 mph - 0.05 in Rain Light Rain
5:51 AM 37.4 °F 32.8 °F 33.8 °F 87% 30.11 in 5.0 mi Variable 5.8 mph - 0.05 in Rain Rain
6:20 AM 35.6 °F 28.0 °F 33.8 °F 93% 30.08 in 5.0 mi ENE 10.4 mph - 0.03 in Rain Rain
6:37 AM 35.6 °F 28.6 °F 33.8 °F 93% 30.07 in 5.0 mi ENE 9.2 mph - 0.05 in Rain Rain
7:04 AM 35.6 °F 29.9 °F 33.8 °F 93% 30.08 in 5.0 mi NE 6.9 mph - 0.01 in Rain Rain
7:53 AM 35.1 °F 27.9 °F 33.1 °F 92% 30.06 in 4.0 mi NE 9.2 mph - 0.06 in Rain Rain
8:21 AM 35.6 °F 28.0 °F 33.8 °F 93% 30.03 in 2.0 mi ENE 10.4 mph - 0.04 in Snow Light Snow
8:48 AM 33.8 °F 27.7 °F 32.0 °F 93% 30.05 in 1.8 mi NE 6.9 mph - 0.08 in Snow Light Snow
8:53 AM 34.0 °F 27.2 °F 32.0 °F 92% 30.06 in 2.0 mi NNE 8.1 mph - 0.09 in Snow Light Snow
9:02 AM 33.8 °F 27.0 °F 33.8 °F 100% 30.05 in 2.5 mi NNE 8.1 mph - 0.00 in Snow Light Snow
9:07 AM 33.8 °F 27.7 °F 33.8 °F 100% 30.04 in 1.8 mi NNE 6.9 mph - 0.01 in Snow Light Snow
9:19 AM 33.8 °F 27.7 °F 32.0 °F 93% 30.03 in 1.0 mi NE 6.9 mph - 0.03 in Snow Light Snow
9:28 AM 33.8 °F 27.7 °F 32.0 °F 93% 30.03 in 0.5 mi NE 6.9 mph - 0.05 in Fog , Snow Snow
9:53 AM 33.1 °F 28.7 °F 32.0 °F 96% 30.04 in 0.5 mi NNE 4.6 mph - 0.09 in Fog , Snow Snow
10:01 AM 33.8 °F 28.6 °F 32.0 °F 93% 30.02 in 0.5 mi North 5.8 mph - 0.02 in Fog , Snow Snow
10:53 AM 33.1 °F 27.7 °F 30.9 °F 92% 30.04 in 0.5 mi NNE 5.8 mph - 0.11 in Fog , Snow Snow
11:29 AM 33.8 °F 28.6 °F 30.2 °F 87% 29.99 in 0.2 mi NNE 5.8 mph - 0.07 in Fog , Snow Heavy Snow
11:53 AM 33.1 °F 26.1 °F 30.9 °F 92% 29.99 in 0.2 mi NNE 8.1 mph - 0.11 in Fog , Snow Heavy Snow
12:53 PM 33.1 °F 24.9 °F 30.9 °F 92% 29.97 in 0.8 mi North 10.4 mph - 0.15 in Snow Light Snow
1:10 PM 33.8 °F 26.4 °F 30.2 °F 87% 29.95 in 1.2 mi NNW 9.2 mph 16.1 mph 0.05 in Snow Light Snow
1:34 PM 33.8 °F 27.0 °F 30.2 °F 87% 29.95 in 1.0 mi North 8.1 mph - 0.09 in Snow Light Snow
1:53 PM 33.1 °F 27.7 °F 30.9 °F 92% 29.98 in 0.5 mi Variable 5.8 mph - 0.14 in Fog , Snow Snow
2:26 PM 33.8 °F 27.0 °F 30.2 °F 87% 29.97 in 0.2 mi NNW 8.1 mph - 0.08 in Fog , Snow Heavy Snow
2:53 PM 33.1 °F 26.1 °F 30.9 °F 92% 29.98 in 0.2 mi North 8.1 mph - 0.16 in Fog , Snow Heavy Snow
3:39 PM 33.8 °F 28.6 °F 32.0 °F 93% 29.98 in 1.0 mi NNW 5.8 mph - 0.12 in Snow Light Snow
4:03 PM 33.8 °F 28.6 °F 30.2 °F 87% 29.97 in 1.8 mi NNW 5.8 mph - 0.12 in Snow Light Snow
4:18 PM 33.8 °F 29.6 °F 32.0 °F 93% 29.97 in 0.8 mi NNW 4.6 mph - 0.12 in Snow Light Snow
4:38 PM 33.8 °F 27.7 °F 30.2 °F 87% 29.98 in 1.2 mi NW 6.9 mph - 0.14 in Snow Light Snow
4:45 PM 33.8 °F 30.8 °F 30.2 °F 87% 29.99 in 1.8 mi NW 3.5 mph - 0.15 in Snow Light Snow
4:49 PM 33.8 °F 29.6 °F 30.2 °F 87% 29.99 in 2.0 mi NW 4.6 mph - 0.15 in Snow Light Snow
4:53 PM 33.1 °F 28.7 °F 30.9 °F 92% 30.01 in 2.5 mi NW 4.6 mph - 0.15 in Snow Light Snow
5:03 PM 33.8 °F 29.6 °F 30.2 °F 87% 29.99 in 3.0 mi NW 4.6 mph - 0.00 in Snow Light Snow
5:21 PM 33.8 °F 27.0 °F 30.2 °F 87% 29.99 in 4.0 mi NW 8.1 mph - 0.00 in Snow Light Snow
5:53 PM 33.1 °F 26.9 °F 30.9 °F 92% 30.02 in 5.0 mi NW 6.9 mph - 0.00 in Snow Light Snow
6:37 PM 33.8 °F 28.6 °F 30.2 °F 87% 30.01 in 4.0 mi NW 5.8 mph - 0.01 in Snow Light Snow
6:45 PM 33.8 °F 27.7 °F 30.2 °F 87% 30.02 in 3.0 mi NW 6.9 mph - 0.01 in Snow Light Snow
8:07 PM 33.8 °F 27.0 °F 30.2 °F 87% 30.03 in 5.0 mi WNW 8.1 mph - 0.00 in Snow Light Snow
8:53 PM 33.1 °F 26.9 °F 30.9 °F 92% 30.06 in 10.0 mi WNW 6.9 mph - 0.00 in   Overcast
9:53 PM 34.0 °F 28.0 °F 30.9 °F 89% 30.07 in 10.0 mi WNW 6.9 mph - N/A   Overcast
10:22 PM 33.8 °F 27.7 °F 30.2 °F 87% 30.05 in 10.0 mi WNW 6.9 mph - N/A   Overcast
10:35 PM 33.8 °F 27.0 °F 30.2 °F 87% 30.05 in 10.0 mi WNW 8.1 mph - N/A   Mostly Cloudy
10:53 PM 33.1 °F 27.7 °F 30.9 °F 92% 30.08 in 10.0 mi NW 5.8 mph - N/A   Scattered Clouds
11:08 PM 33.8 °F 29.6 °F 30.2 °F 87% 30.06 in 10.0 mi WNW 4.6 mph - N/A   Mostly Cloudy
11:44 PM 32.0 °F 28.7 °F 30.2 °F 93% 30.05 in 10.0 mi West 3.5 mph - N/A   Scattered Clouds
11:53 PM 32.0 °F - 30.0 °F 92% 30.07 in 10.0 mi Calm Calm - N/A   Partly Cloudy